Grosseto, Italy

4:05 AM CEST on April 28, 2017 (GMT +0200)
Grosseto Mil

Weather History for LIRS - September, 2013

Change the Weather History Date:

Thursday, September 19, 2013

  Actual Average Record
Temperature  
Mean Temperature 72 °F -  
Max Temperature 83 °F 74 °F 84 °F (2004)
Min Temperature 60 °F 54 °F 50 °F (1998)
Cooling Degree Days 6    
Growing Degree Days 22 (Base 50)    
Moisture  
Dew Point 60 °F    
Average Humidity 67    
Maximum Humidity 94    
Minimum Humidity 32    
Precipitation  
Precipitation 0.00 in 0.10 in - ()
Sea Level Pressure  
Sea Level Pressure 29.72 in    
Wind  
Wind Speed 4 mph ()    
Max Wind Speed 8 mph    
Max Gust Speed -    
Visibility 14.0 miles    
Events      
Averages and records for this station are not official NWS values.
T = Trace of Precipitation, MM = Missing Value Source: Averaged Metar Reports

Daily Weather History Graph

Daily Weather History Graph

Search for Another Location

Airport or City:

Trip Planner

Search our weather history database for the weather conditions in past years. The results will help you decide how hot, cold, wet, or windy it might be!

Date:

Astronomy

Sep. 19, 2013 Rise Set
Actual Time 6:59 AM CEST 7:18 PM CEST
Civil Twilight 6:31 AM CEST 7:46 PM CEST
Nautical Twilight 5:58 AM CEST 8:19 PM CEST
Astronomical Twilight 5:24 AM CEST 8:53 PM CEST
Moon 7:05 PM CEST (9/19) 6:51 AM CEST (9/19)
Length of Visible Light 13h 15m
Length of Day
12h 18m
Full, 100% of the Moon is Illuminated
Sep 19
Full
Sep 19
Full
Sep 27
Last Quarter
Oct 5
New
Oct 12
First Quarter

Hourly Weather History & Observations

Time (CEST) Temp. Heat Index Dew Point Humidity Pressure Visibility Wind Dir Wind Speed Gust Speed Precip Events Conditions
12:55 AM 68.0 °F - 60.8 °F 78% 29.68 in - North - - N/A   Partly Cloudy
1:55 AM 66.2 °F - 59.0 °F 78% 29.71 in - North - - N/A   Mostly Cloudy
2:00 AM 67 °F - 60 °F 72% 29.71 in 12 mi East 5.8 mph - -   Mostly Cloudy
2:55 AM 66.2 °F - 59.0 °F 78% 29.71 in - North - - N/A   Mostly Cloudy
3:55 AM 62.6 °F - 57.2 °F 82% 29.68 in - North - - N/A   Scattered Clouds
4:55 AM 62.6 °F - 59.0 °F 88% 29.68 in - North - - N/A   Clear
5:55 AM 64.4 °F - 60.8 °F 88% 29.68 in - North - - N/A   Partly Cloudy
6:55 AM 68.0 °F - 66.2 °F 94% 29.68 in - North - - N/A   Clear
7:55 AM 62.6 °F - 60.8 °F 94% 29.71 in - North - - N/A   Partly Cloudy
8:00 AM 62 °F - 60 °F 91% 29.72 in 16 mi North 4.6 mph - -   Scattered Clouds
8:55 AM 69.8 °F - 62.6 °F 78% 29.71 in - North - - N/A   Partly Cloudy
9:55 AM 73.4 °F - 62.6 °F 69% 29.71 in - North - - N/A   Partly Cloudy
10:55 AM 77.0 °F - 59.0 °F 54% 29.71 in - North - - N/A   Scattered Clouds
11:55 AM 78.8 °F - 57.2 °F 47% 29.74 in - North - - N/A   Scattered Clouds
12:55 PM 82.4 °F 81.4 °F 53.6 °F 37% 29.74 in - North - - N/A   Scattered Clouds
1:55 PM 80.6 °F 80.5 °F 55.4 °F 42% 29.71 in - North - - N/A   Scattered Clouds
2:00 PM 81 °F - 56 °F 32% 29.73 in 25 mi WSW 8.1 mph - -   Partly Cloudy
2:55 PM 82.4 °F 82.5 °F 59.0 °F 45% 29.71 in - North - - N/A   Scattered Clouds
3:55 PM 80.6 °F 81.1 °F 59.0 °F 48% 29.71 in - North - - N/A   Scattered Clouds
4:55 PM 82.4 °F 81.7 °F 55.4 °F 39% 29.71 in - North - - N/A   Partly Cloudy
5:55 PM 82.4 °F 82.0 °F 57.2 °F 42% 29.71 in - North - - N/A   Partly Cloudy
6:55 PM 78.8 °F - 57.2 °F 47% 29.71 in - North - - N/A   Partly Cloudy
7:55 PM 73.4 °F - 62.6 °F 69% 29.74 in - North - - N/A   Partly Cloudy
8:00 PM 74 °F - 62 °F 59% 29.75 in 25 mi South 5.8 mph - -   Scattered Clouds
8:55 PM 71.6 °F - 64.4 °F 78% 29.77 in - North - - N/A   Partly Cloudy
9:55 PM 69.8 °F - 62.6 °F 78% 29.80 in - North - - N/A   Partly Cloudy
10:55 PM 69.8 °F - 62.6 °F 78% 29.80 in - North - - N/A   Partly Cloudy
11:55 PM 68.0 °F - 60.8 °F 78% 29.83 in - North - - N/A   Clear